[[{"header":{"parameterUnit":"m.s-1","parameterCategory":1,"la1":30.2991,"la2":30.254,"lo1":-89.0895,"lo2":-89.0444,"dy":0.0017,"dx":0.0017,"nx":28,"ny":28,"refTime":"2024-10-02T21:00:00:Z","depth":0,"parameterNumber":2,"parameterNumberName":"U-component_of_WINDS"},"data":[0,0,0,0,0,0,0,0,0,0,0,0,0,0,0,0,0,0,0,0,0,0,0,0,0,0,0,0,0,0,0,0,0,0,0,0,0,0,0,0,0,0,0,0,0,0,0,0,0,0,0,0,0,0,0,0,0,0,0.3635,0.3636,0,0.3699,0.37,0.3701,0.3765,0.3766,0.3767,0.3767,0.3831,0.3831,0.3832,0,0,0,0,0,0,0,0,0,0,0,0,0,0.3565,0.3566,0.3635,0.3636,0.3637,0.3699,0.37,0.3701,0.3765,0.3766,0.3767,0.3768,0.383,0.3831,0.3832,0,0,0,0,0,0,0,0,0,0,0,0,0,0.3609,0.3566,0.3635,0.3676,0.3681,0.3699,0.37,0.3701,0.3765,0.3766,0.3767,0.3768,0.383,0.3831,0.3833,0.3815,0,0,0.3837,0.3837,0,0,0,0,0,0,0,0,0.3606,0.3611,0.3669,0.3673,0.3678,0.3726,0.3699,0.3739,0.3764,0.3733,0.3767,0.3769,0.3794,0.3799,0.3808,0.3818,0.3821,0.3837,0.3838,0.3838,0.3838,0,0,0,0,0,0,0,0.3603,0.3609,0.3661,0.367,0.3676,0.3691,0.3698,0.3707,0.3755,0.3735,0.374,0.3747,0.3797,0.3806,0.381,0.3822,0.3837,0.3838,0.3839,0.3839,0.3819,0.3817,0,0,0,0,0,0,0.3594,0.3606,0.3659,0.3663,0.3645,0.3691,0.3699,0.3709,0.3756,0.3764,0.3746,0.375,0.3804,0.3808,0.3812,0.3794,0.3838,0.3839,0.384,0.382,0.3818,0.3817,0,0,0,0,0,0,0.3593,0.3598,0.3656,0.3636,0.3644,0.3691,0.3701,0.371,0.3719,0.3763,0.3772,0.3747,0.3805,0.381,0.3814,0.3797,0.384,0.3841,0.3821,0.3819,0.3818,0.3756,0,0,0,0,0,0,0.359,0.3597,0.3592,0.3635,0.3645,0.3657,0.37,0.371,0.3721,0.3727,0.3766,0.3774,0.3806,0.3811,0.3815,0.3799,0.3842,0.3823,0.3821,0.3818,0.376,0.3752,0.3746,0,0,0,0,0,0.3588,0.3572,0.3591,0.3597,0.3639,0.3656,0.3661,0.3699,0.372,0.3714,0.3742,0.3773,0.3798,0.3811,0.3816,0.38,0.3824,0.3821,0.3818,0.3763,0.3754,0.3746,0,0,0,0,0,0,0.3525,0.3578,0.36,0.3598,0.3622,0.3667,0.3661,0.3688,0.3706,0.3711,0.3756,0.3764,0.3762,0.3782,0.3795,0.3785,0.3815,0.3813,0.3772,0.3763,0.3756,0.3751,0.3843,0,0,0,0,0,0.3511,0.3521,0.3567,0.356,0.3571,0.3614,0.3622,0.3649,0.3675,0.3686,0.3714,0.3738,0.3751,0.3758,0.3773,0.3763,0.3772,0.3755,0.3748,0.3742,0.3739,0.3734,0.3726,0.3807,0.3807,0.3807,0,0,0.3482,0.3512,0.3516,0.3549,0.357,0.3578,0.3622,0.3629,0.3635,0.3687,0.3691,0.3713,0.3742,0.3738,0.3738,0.3754,0.3719,0.3738,0.3733,0.3733,0.373,0.3722,0.3715,0.3805,0.3805,0.3806,0,0,0.3433,0.3458,0.3455,0.3475,0.3508,0.3536,0.3535,0.3575,0.3592,0.3597,0.3636,0.3643,0.3665,0.3684,0.3696,0.3653,0.3681,0.3657,0.3619,0.3614,0.3607,0.3602,0.3585,0.3579,0.3654,0.3654,0.3654,0,0.3393,0.3408,0.3449,0.3454,0.3466,0.3514,0.351,0.3528,0.3563,0.357,0.3589,0.3616,0.3639,0.364,0.3629,0.3638,0.3637,0.3652,0.3605,0.36,0.3596,0.358,0.3574,0.3651,0.3651,0.3651,0.3652,0,0.3355,0.3365,0.3358,0.3391,0.3403,0.3403,0.3444,0.3451,0.3477,0.3503,0.3507,0.3536,0.3557,0.3559,0.3584,0.3563,0.3572,0.3597,0.3628,0.3584,0.357,0.3564,0.3646,0.3647,0.3648,0.3649,0,0,0.3269,0.3324,0.3321,0.3336,0.3375,0.3382,0.3384,0.3405,0.3409,0.3431,0.3433,0.345,0.3474,0.3487,0.3515,0.351,0.3472,0.3536,0.3538,0.3522,0.3448,0.3428,0.342,0.3492,0.3491,0.349,0.3445,0,0.3225,0.3232,0.3269,0.3265,0.3273,0.3318,0.332,0.3343,0.3367,0.3376,0.3403,0.3414,0.3445,0.3453,0.345,0.3478,0.3458,0.3482,0.3492,0.3492,0.3482,0.3413,0.3392,0.3348,0.344,0.3439,0.3439,0,0.3176,0.3195,0.3191,0.3229,0.3233,0.3234,0.3255,0.3265,0.3291,0.3309,0.3324,0.3355,0.3358,0.3389,0.3393,0.3408,0.3414,0.3428,0.3428,0.3429,0.3461,0.3411,0.3336,0.3328,0.3431,0.3431,0.3432,0,0.3111,0.3136,0.3136,0.3148,0.3192,0.3191,0.3209,0.3238,0.3247,0.3266,0.3272,0.329,0.33,0.3313,0.3348,0.3367,0.3347,0.3381,0.336,0.3359,0.3353,0.3353,0.3276,0.336,0.336,0.336,0.336,0,0.3057,0.3053,0.3108,0.3108,0.3103,0.3146,0.314,0.3163,0.3187,0.3192,0.3232,0.3235,0.3282,0.329,0.3317,0.3315,0.3319,0.3333,0.334,0.3328,0.3326,0.3332,0.3335,0.3358,0.3358,0.3359,0.3359,0,0.2984,0.302,0.3024,0.3065,0.3075,0.307,0.3105,0.3106,0.3133,0.3138,0.3141,0.3183,0.3194,0.323,0.3251,0.3269,0.3258,0.3273,0.3249,0.3253,0.323,0.3231,0.3153,0.3144,0.3235,0.3234,0.3233,0,0.2946,0.2944,0.2985,0.2991,0.3008,0.3017,0.3027,0.3069,0.3077,0.3107,0.3104,0.3119,0.3133,0.3148,0.3179,0.3195,0.3209,0.318,0.3211,0.3199,0.3206,0.3205,0.3204,0.3173,0.3172,0.3171,0.317,0,0.2876,0.2894,0.2908,0.2927,0.2937,0.2954,0.2974,0.2976,0.3022,0.303,0.3042,0.3053,0.3073,0.3087,0.3107,0.3125,0.3154,0.316,0.3156,0.3143,0.3129,0.3135,0.3229,0.3162,0.3162,0.3163,0.3164,0.3164,0.2819,0.2818,0.2846,0.2859,0.2878,0.2895,0.2898,0.2924,0.2936,0.2956,0.298,0.2989,0.3014,0.3045,0.306,0.3067,0.3083,0.3077,0.3076,0.3073,0.3067,0.3129,0.3071,0.3071,0.3071,0.3072,0.3072,0,0.2749,0.2769,0.2781,0.2806,0.2816,0.2844,0.2867,0.2873,0.288,0.2902,0.2915,0.2928,0.2941,0.2973,0.2988,0.2988,0.3001,0.299,0.299,0.2993,0.3052,0.3054,0.2979,0.2979,0.2979,0.2979,0.2979,0.2979,0.2714,0.2713,0.2734,0.2743,0.2764,0.2773,0.2783,0.2799,0.2816,0.2829,0.284,0.2861,0.2887,0.2904,0.2917,0.2926,0.2929,0.2913,0.2926,0.298,0.2989,0.2997,0.2999,0.2914,0.2913,0.2866,0.2865,0.2865]},{"header":{"parameterUnit":"m.s-1","parameterCategory":1,"la1":30.2991,"la2":30.254,"lo1":-89.0895,"lo2":-89.0444,"dy":0.0017,"dx":0.0017,"nx":28,"ny":28,"refTime":"2024-10-02T21:00:00:Z","depth":0,"parameterNumber":3,"parameterNumberName":"V-component_of_WINDS"},"data":[0,0,0,0,0,0,0,0,0,0,0,0,0,0,0,0,0,0,0,0,0,0,0,0,0,0,0,0,0,0,0,0,0,0,0,0,0,0,0,0,0,0,0,0,0,0,0,0,0,0,0,0,0,0,0,0,0,0,-0.7453,-0.7453,0,-0.7482,-0.7482,-0.7483,-0.748,-0.7479,-0.7479,-0.7478,-0.7509,-0.751,-0.7511,0,0,0,0,0,0,0,0,0,0,0,0,0,-0.7396,-0.7397,-0.7453,-0.7453,-0.7454,-0.7482,-0.7482,-0.7483,-0.748,-0.7479,-0.7479,-0.7478,-0.7508,-0.751,-0.7511,0,0,0,0,0,0,0,0,0,0,0,0,0,-0.7422,-0.7397,-0.7453,-0.7455,-0.7456,-0.7482,-0.7482,-0.7483,-0.748,-0.7479,-0.7478,-0.7478,-0.7508,-0.751,-0.7512,-0.7537,0,0,-0.7517,-0.7518,0,0,0,0,0,0,0,0,-0.7421,-0.7424,-0.7455,-0.7455,-0.7456,-0.7476,-0.7473,-0.7501,-0.748,-0.7471,-0.7478,-0.7477,-0.7499,-0.7501,-0.7508,-0.7539,-0.754,-0.7517,-0.7519,-0.7519,-0.752,0,0,0,0,0,0,0,-0.7419,-0.7423,-0.7465,-0.7455,-0.7456,-0.7456,-0.7459,-0.7479,-0.7488,-0.7472,-0.7471,-0.7475,-0.7499,-0.7506,-0.7509,-0.754,-0.7517,-0.7519,-0.752,-0.7521,-0.7593,-0.7594,0,0,0,0,0,0,-0.7416,-0.7422,-0.7464,-0.7465,-0.7436,-0.7457,-0.746,-0.7471,-0.7488,-0.749,-0.7475,-0.7475,-0.7504,-0.7507,-0.751,-0.7541,-0.7519,-0.7521,-0.7522,-0.7593,-0.7594,-0.7594,0,0,0,0,0,0,-0.7415,-0.742,-0.7462,-0.7443,-0.7449,-0.7459,-0.747,-0.7472,-0.7479,-0.7491,-0.7493,-0.7481,-0.7503,-0.7507,-0.753,-0.7542,-0.7522,-0.7524,-0.7592,-0.7593,-0.7594,-0.7604,0,0,0,0,0,0,-0.7413,-0.742,-0.7429,-0.7444,-0.745,-0.7482,-0.7471,-0.7473,-0.7482,-0.7481,-0.7497,-0.7499,-0.7503,-0.7528,-0.7532,-0.7544,-0.7525,-0.7591,-0.7592,-0.7594,-0.7602,-0.7605,-0.7607,0,0,0,0,0,-0.7411,-0.7431,-0.743,-0.7435,-0.7462,-0.7483,-0.7486,-0.749,-0.7483,-0.7493,-0.7501,-0.7498,-0.754,-0.753,-0.7535,-0.7548,-0.759,-0.7592,-0.7594,-0.7601,-0.7605,-0.7607,0,0,0,0,0,0,-0.7417,-0.7433,-0.7432,-0.7456,-0.7468,-0.7482,-0.7495,-0.7494,-0.7508,-0.7507,-0.7511,-0.7515,-0.7538,-0.7546,-0.7534,-0.7574,-0.7564,-0.7567,-0.7568,-0.7572,-0.7574,-0.7572,-0.7527,0,0,0,0,0,-0.7422,-0.7437,-0.745,-0.747,-0.7476,-0.7484,-0.7494,-0.7496,-0.7508,-0.7513,-0.7523,-0.7535,-0.7552,-0.7562,-0.7577,-0.7604,-0.7607,-0.7615,-0.7618,-0.762,-0.7622,-0.7637,-0.7641,-0.76,-0.76,-0.76,0,0,-0.743,-0.7441,-0.745,-0.7472,-0.7481,-0.7497,-0.7489,-0.7506,-0.7518,-0.7516,-0.7538,-0.7546,-0.756,-0.7585,-0.7596,-0.7592,-0.7634,-0.7622,-0.7623,-0.7625,-0.7639,-0.7643,-0.7646,-0.7602,-0.7601,-0.7601,0,0,-0.7455,-0.7464,-0.7482,-0.7492,-0.7506,-0.7512,-0.7516,-0.753,-0.7535,-0.7558,-0.7557,-0.7571,-0.7599,-0.7609,-0.7618,-0.7647,-0.7646,-0.7652,-0.7665,-0.7679,-0.7683,-0.7685,-0.7696,-0.77,-0.7654,-0.7654,-0.7654,0,-0.7464,-0.7488,-0.7492,-0.7509,-0.7519,-0.7518,-0.7537,-0.7546,-0.7565,-0.7572,-0.7566,-0.7601,-0.7611,-0.7638,-0.7645,-0.7652,-0.7658,-0.765,-0.7682,-0.7685,-0.7687,-0.7697,-0.7701,-0.7655,-0.7655,-0.7655,-0.7655,0,-0.7498,-0.7515,-0.7528,-0.7546,-0.7557,-0.7576,-0.7583,-0.7594,-0.7595,-0.7601,-0.7624,-0.7636,-0.7654,-0.766,-0.7662,-0.7688,-0.7685,-0.7681,-0.7671,-0.7692,-0.7701,-0.7705,-0.7656,-0.7656,-0.7656,-0.7655,0,0,-0.7527,-0.7547,-0.7552,-0.756,-0.7577,-0.759,-0.7608,-0.7625,-0.7635,-0.7648,-0.7664,-0.7687,-0.7683,-0.7694,-0.7696,-0.7709,-0.7731,-0.7703,-0.7704,-0.7708,-0.7761,-0.7764,-0.7769,-0.7731,-0.7731,-0.7732,-0.776,0,-0.7553,-0.7585,-0.7589,-0.7617,-0.7633,-0.7633,-0.7649,-0.7661,-0.7667,-0.7682,-0.7689,-0.7705,-0.7699,-0.7705,-0.7718,-0.7726,-0.7742,-0.7724,-0.7745,-0.7746,-0.7742,-0.7774,-0.7777,-0.7803,-0.7764,-0.7765,-0.7765,0,-0.7587,-0.7601,-0.7631,-0.7646,-0.7652,-0.7667,-0.7683,-0.7697,-0.7711,-0.7714,-0.7726,-0.7727,-0.7747,-0.7736,-0.7763,-0.7751,-0.776,-0.7765,-0.7767,-0.7769,-0.7757,-0.7777,-0.7812,-0.7816,-0.7771,-0.777,-0.777,0,-0.7605,-0.7631,-0.7653,-0.766,-0.7677,-0.7688,-0.7695,-0.7708,-0.7719,-0.7733,-0.774,-0.7757,-0.7766,-0.7779,-0.7785,-0.7777,-0.7812,-0.7802,-0.7816,-0.7816,-0.7823,-0.7823,-0.786,-0.7829,-0.7829,-0.7829,-0.7829,0,-0.7633,-0.7652,-0.7661,-0.7674,-0.7695,-0.77,-0.7721,-0.7728,-0.774,-0.7755,-0.7756,-0.777,-0.7777,-0.7792,-0.7797,-0.7819,-0.7823,-0.7827,-0.7828,-0.7827,-0.7827,-0.7833,-0.7831,-0.783,-0.783,-0.7829,-0.7829,0,-0.7657,-0.7664,-0.7687,-0.7702,-0.7706,-0.7721,-0.7733,-0.7746,-0.7753,-0.7772,-0.7776,-0.7787,-0.7805,-0.7812,-0.7834,-0.7838,-0.7863,-0.7863,-0.7858,-0.7859,-0.7872,-0.7871,-0.7915,-0.7921,-0.7886,-0.7886,-0.7887,0,-0.7674,-0.7688,-0.7704,-0.7714,-0.7723,-0.7739,-0.7749,-0.7755,-0.7766,-0.7783,-0.7794,-0.7812,-0.7827,-0.7856,-0.7866,-0.7883,-0.7883,-0.7897,-0.7886,-0.7884,-0.7883,-0.7883,-0.7884,-0.7899,-0.79,-0.79,-0.79,0,-0.7705,-0.7708,-0.7723,-0.7739,-0.7752,-0.7765,-0.7778,-0.7786,-0.7794,-0.7806,-0.7825,-0.7836,-0.7859,-0.7877,-0.7895,-0.7903,-0.7903,-0.7904,-0.7908,-0.7907,-0.7904,-0.7906,-0.7864,-0.7903,-0.7903,-0.7902,-0.7902,-0.7902,-0.7726,-0.7738,-0.7752,-0.7769,-0.7779,-0.7791,-0.7804,-0.7813,-0.7828,-0.7847,-0.7849,-0.7869,-0.7883,-0.7907,-0.7916,-0.7932,-0.7929,-0.7935,-0.7936,-0.7938,-0.7939,-0.7901,-0.7936,-0.7936,-0.7936,-0.7936,-0.7935,0,-0.7756,-0.7765,-0.7781,-0.7799,-0.7812,-0.7811,-0.7825,-0.7837,-0.7854,-0.7867,-0.7882,-0.7903,-0.7921,-0.7932,-0.795,-0.7961,-0.7961,-0.7965,-0.7964,-0.7967,-0.7941,-0.7935,-0.7964,-0.7964,-0.7964,-0.7964,-0.7964,-0.7964,-0.7774,-0.7795,-0.78,-0.7827,-0.7836,-0.7855,-0.7863,-0.7875,-0.7885,-0.7909,-0.7924,-0.7931,-0.7943,-0.7962,-0.7979,-0.7982,-0.7988,-0.7993,-0.7995,-0.7971,-0.7968,-0.7965,-0.796,-0.7994,-0.7994,-0.802,-0.802,-0.802]}]]